ONEWEB-0695, 61602

Orbit data source: Space-Track

ONEWEB-0695, 61602 is a payload satellite owned by Eut. One Web (UK) in LEO that was launched on Sun, 20 Oct 2024 UTC via an FALCON 9 launch vehicle from the Air Force Western Test Range (AFWTR). Payload-class satellites include a variety of spacecraft equipped with specific instruments for various scientific and technological missions. These include communications satellites like Starlink; space stations such as the ISS; scientific satellites like the Hubble; Earth observation satellites from companies like Planet Labs, Umbra, and HawkEye 360; GPS; miniature CubeSats for education and research; and military/defense satellites.

Loading next visibility...
Identifier
61602, 2024-188J
Orbit
LEO
Last TLE update
8 hours ago
Origin
Manufacturer
One Web
Mission
Operational Commercial Communications
Bus & Motor
ARROW, Unknown motor
Mass
148 kg wet, ~140 kg dry
Launch date (UTC)
2024-10-20 (9 months ago)
Launch vehicle
FALCON 9
Launch site
Air Force Western Test Range (AFWTR)
Object type
Payload
Rocket body
Debris
Shape & HBR
Trap Box + 2 Pan, 2.5 m
Radar Cross Section
2.032 m², Medium (>0.1 m² and < 1m²)

Expand to show TLE details & history

TLE from 8 hours ago
0 ONEWEB-0695
1 61602U 24188J   25199.62298860  .00000106  00000-0  26220-3 0  9997
2 61602  87.8820  87.5789 0001695  58.3384 301.7909 13.11414803 40746
Epoch: 2025-07-18T14:57Z
TLE epoch observation values (Epoch: 2025-07-18T14:57:06.215Z)
Latitude
-0.00001°
Longitude
-73.36879°
Altitude
1,219.902 km
Speed
7.245 km/s
True Right ascension
05h 50m 18s
True Declination
0° 00' 00"
Sunlit
Object was in daylight at epoch
Visualization orbit readout
Latitude
41.79009°
Longitude
104.6798°
Altitude
1,223.585 km
Speed
7.247 km/s
Apparent Right ascension
20h 27m 18s
Apparent Declination
7° 27' 12"
Sunlit
Object is in daylight
Visualization observer readout
Local Sidereal Time
11:46:15
Azimuth
55.981° ENE
Elevation
-24.097°
Doppler factor
1
Orbital elements
Apogee altitude
1,216.096 km
Perigee altitude
1,213.522 km
Semi-major axis
7,592.946 km
Eccentricity
0.00017
Inclination
87.882°
RAAN
87.5789°
Arg. of periapsis
58.3384°
True anomaly
301.77439°
Mean anomaly
301.7909°
Eccentric anomaly
301.78264°
Mean motion
3.28041 °/min
Orbital period
109.74 mins
BSTAR
0.0002622
Loading maneuver chart data...
Loading SW <> Apogee altitude chart data...
Loading historical data...
Loading historical data...
Loading historical data...
Loading historical data...
Loading historical data...
Loading historical data...
Loading historical data...
|